EW4337 Weather Reports


Display with metric or nautical units.
time (UTC)temp
F
wind
direction
speed
MPH
gust
MPH
rain 1hr
in
rain 24hr
in
rain mn
in
humidity
%
barometer
mb
20181019235703 38 17 0.0 0.0 0.00 0.00 0.00 92 1028.4
20181019234704 38 17 0.0 0.0 0.00 0.00 0.00 92 1028.3
20181019233704 38 17 0.0 0.0 0.00 0.00 0.00 91 1028.3
20181019232704 38 17 0.0 0.0 0.00 0.00 0.00 91 1028.4
20181019231705 38 17 0.0 0.0 0.00 0.00 0.00 91 1028.1
20181019230704 39 17 0.0 0.0 0.00 0.00 0.00 91 1027.9
20181019225704 39 17 0.0 0.0 0.00 0.00 0.00 91 1028.1
20181019224704 39 17 0.0 0.0 0.00 0.00 0.00 91 1028.1
20181019223704 40 17 0.0 0.0 0.00 0.00 0.00 91 1028.1
20181019222704 40 17 0.0 0.0 0.00 0.00 0.00 91 1028.3
20181019221704 40 17 0.0 0.0 0.00 0.00 0.00 91 1028.2
20181019220704 40 17 0.0 0.0 0.00 0.00 0.00 90 1028.3
20181019215704 40 17 0.0 0.0 0.00 0.00 0.00 90 1028.0
20181019214704 40 17 0.0 0.0 0.00 0.00 0.00 90 1027.7
20181019213704 40 17 0.0 0.0 0.00 0.00 0.00 90 1027.9
20181019212704 40 17 0.0 0.0 0.00 0.00 0.00 89 1027.9
20181019211705 41 17 0.0 0.0 0.00 0.00 0.00 89 1027.7
20181019210705 41 17 0.0 0.0 0.00 0.00 0.00 89 1027.8
20181019205703 42 17 0.0 0.0 0.00 0.00 0.00 88 1027.7
20181019204703 42 17 0.0 0.0 0.00 0.00 0.00 88 1027.7
20181019203703 42 17 0.0 0.0 0.00 0.00 0.00 88 1027.7
20181019202703 43 17 0.0 0.0 0.00 0.00 0.00 88 1027.8
20181019201703 43 17 0.0 0.0 0.00 0.00 0.00 87 1027.8
20181019200703 43 17 0.0 0.0 0.00 0.00 0.00 87 1027.7
20181019195703 44 17 0.0 0.0 0.00 0.00 0.00 87 1027.8
20181019194703 44 17 0.0 0.0 0.00 0.00 0.00 87 1027.5
20181019193703 44 17 0.0 0.0 0.00 0.00 0.00 86 1027.5
20181019192704 44 17 0.0 0.0 0.00 0.00 0.00 86 1027.5
20181019191703 45 17 0.0 0.0 0.00 0.00 0.00 85 1027.5
20181019190704 45 17 0.0 0.0 0.00 0.00 0.00 85 1027.4
20181019185704 45 17 0.0 0.0 0.00 0.00 0.00 85 1027.1
20181019184703 46 17 0.0 0.0 0.00 0.00 0.00 85 1027.1
20181019183703 46 17 0.0 0.0 0.00 0.00 0.00 84 1027.1
20181019182703 46 17 0.0 0.0 0.00 0.00 0.00 84 1027.0
20181019181703 46 17 0.0 0.0 0.00 0.00 0.00 83 1026.8
20181019180703 47 17 0.0 0.0 0.00 0.00 0.00 83 1026.8
20181019175703 47 17 0.0 0.0 0.00 0.00 0.00 83 1026.8
20181019174704 47 17 0.0 0.0 0.00 0.00 0.00 82 1026.8
20181019173703 48 17 0.0 0.0 0.00 0.00 0.00 81 1026.6
20181019172704 48 17 0.0 0.0 0.00 0.00 0.00 80 1026.7
20181019171703 49 17 0.0 0.0 0.00 0.00 0.00 79 1026.4
20181019170704 49 17 0.0 0.0 0.00 0.00 0.00 77 1026.4
20181019165704 50 17 0.0 0.0 0.00 0.00 0.00 75 1026.4
20181019164704 51 17 0.0 0.0 0.00 0.00 0.00 73 1026.3
20181019163703 52 17 0.0 0.0 0.00 0.00 0.00 71 1026.2
20181019162704 52 17 0.0 0.0 0.00 0.00 0.00 70 1026.1
20181019161704 53 17 0.0 0.0 0.00 0.00 0.00 69 1025.9
20181019160704 53 17 0.0 0.0 0.00 0.00 0.00 68 1025.8
20181019155703 54 38 0.0 2.0 0.00 0.00 0.00 68 1025.7
20181019154703 54 44 0.0 2.0 0.00 0.00 0.00 67 1025.6
20181019153704 54 42 0.0 2.0 0.00 0.00 0.00 66 1025.7
20181019152704 55 42 0.0 0.0 0.00 0.00 0.00 66 1025.7
20181019151704 55 35 0.0 2.0 0.00 0.00 0.00 65 1025.7
20181019150703 56 42 0.0 1.0 0.00 0.00 0.00 63 1025.8
20181019145703 55 76 0.0 2.0 0.00 0.00 0.00 65 1025.7
20181019144704 55 93 0.0 3.0 0.00 0.00 0.00 66 1025.7
20181019143704 55 56 0.0 2.0 0.00 0.00 0.00 65 1025.7
20181019142704 55 330 0.0 2.0 0.00 0.00 0.00 65 1025.7
20181019141704 56 130 0.0 1.0 0.00 0.00 0.00 64 1025.7
20181019140704 56 31 0.0 2.0 0.00 0.00 0.00 64 1025.8
20181019135705 57 88 1.0 6.0 0.00 0.00 0.00 63 1025.9
20181019134704 57 45 0.0 0.0 0.00 0.00 0.00 63 1026.0
20181019133703 57 354 0.0 3.0 0.00 0.00 0.00 63 1026.1
20181019132704 57 71 1.0 3.0 0.00 0.00 0.00 64 1026.0
20181019131704 57 102 1.0 7.0 0.00 0.00 0.00 64 1026.1
20181019130704 57 66 0.0 0.0 0.00 0.00 0.00 63 1026.2
20181019125704 56 66 0.0 3.0 0.00 0.00 0.00 64 1026.4
20181019124704 57 63 1.0 3.0 0.00 0.00 0.00 63 1026.5
20181019123704 57 91 0.0 3.0 0.00 0.00 0.00 64 1026.5
20181019122705 56 29 0.0 1.0 0.00 0.00 0.00 65 1026.5
20181019121704 55 66 0.0 5.0 0.00 0.00 0.00 66 1026.6
20181019120704 56 64 4.0 6.0 0.00 0.00 0.00 66 1026.5
20181019115704 55 63 1.0 3.0 0.00 0.00 0.00 67 1026.6
20181019114704 56 46 0.0 3.0 0.00 0.00 0.00 66 1026.6
20181019113704 55 62 2.0 9.0 0.00 0.00 0.00 67 1026.6
20181019112704 55 55 2.0 5.0 0.00 0.00 0.00 68 1026.7
20181019111704 55 79 3.0 8.0 0.00 0.00 0.00 68 1026.7
20181019110705 55 98 3.0 8.0 0.00 0.00 0.00 68 1026.8
20181019105705 55 54 3.0 6.0 0.00 0.00 0.00 68 1026.8
20181019104704 55 59 2.0 6.0 0.00 0.00 0.00 71 1026.8
20181019103704 54 99 3.0 9.0 0.00 0.00 0.00 73 1026.9
20181019102704 53 61 3.0 7.0 0.00 0.00 0.00 75 1026.9
20181019101704 52 90 2.0 6.0 0.00 0.00 0.00 79 1027.0
20181019100705 51 92 2.0 7.0 0.00 0.00 0.00 83 1026.9
20181019095701 51 89 1.0 5.0 0.00 0.00 0.00 85 1027.0
20181019094702 50 94 1.0 3.0 0.00 0.00 0.00 88 1027.0
20181019093702 50 70 0.0 0.0 0.00 0.00 0.00 90 1027.1
20181019092702 49 105 0.0 0.0 0.00 0.00 0.00 90 1027.0
20181019091701 49 105 0.0 2.0 0.00 0.00 0.00 91 1027.0
20181019090701 49 112 1.0 7.0 0.00 0.00 0.00 92 1027.1
20181019085702 48 92 0.0 1.0 0.00 0.00 0.00 93 1027.1
20181019084702 48 84 0.0 0.0 0.00 0.00 0.00 93 1027.2
20181019083702 48 84 0.0 2.0 0.00 0.00 0.00 93 1027.2
20181019082702 47 94 0.0 0.0 0.00 0.00 0.00 94 1027.2
20181019081701 47 94 0.0 3.0 0.00 0.00 0.00 94 1027.2
20181019080702 46 68 0.0 3.0 0.00 0.00 0.00 94 1027.2
20181019075702 46 66 0.0 6.0 0.00 0.00 0.00 95 1027.1
20181019074701 46 95 0.0 5.0 0.00 0.00 0.00 95 1027.2
20181019073702 45 77 0.0 2.0 0.00 0.00 0.00 96 1027.1
20181019072702 45 102 0.0 2.0 0.00 0.00 0.00 96 1027.1
20181019071702 44 12 0.0 0.0 0.00 0.00 0.00 96 1027.0
20181019070702 43 13 0.0 2.0 0.00 0.00 0.00 95 1027.1
20181019065702 42 17 0.0 0.0 0.00 0.00 0.00 95 1027.1
20181019064702 42 17 0.0 2.0 0.00 0.00 0.00 95 1027.0
20181019063702 41 17 0.0 1.0 0.00 0.00 0.00 95 1027.1
20181019062702 41 17 0.0 0.0 0.00 0.00 0.00 95 1027.1
20181019061703 41 17 0.0 0.0 0.00 0.00 0.00 95 1027.0
20181019060702 40 17 0.0 0.0 0.00 0.00 0.00 95 1027.0
20181019055702 40 17 0.0 0.0 0.00 0.00 0.00 94 1027.0
20181019054702 39 17 0.0 0.0 0.00 0.00 0.00 94 1026.9
20181019053702 39 17 0.0 0.0 0.00 0.00 0.00 94 1026.8
20181019052702 38 17 0.0 0.0 0.00 0.00 0.00 94 1026.8
20181019051702 38 17 0.0 0.0 0.00 0.00 0.00 94 1026.8
20181019050702 38 17 0.0 0.0 0.00 0.00 0.00 94 1026.7
20181019045702 38 17 0.0 0.0 0.00 0.00 0.00 93 1026.6
20181019044702 38 17 0.0 0.0 0.00 0.00 0.00 94 1026.5
20181019043702 38 17 0.0 0.0 0.00 0.00 0.00 93 1026.5
20181019042702 38 17 0.0 0.0 0.00 0.00 0.00 94 1026.5
20181019041704 38 17 0.0 0.0 0.00 0.00 0.00 93 1026.5
20181019040702 38 17 0.0 0.0 0.00 0.00 0.00 93 1026.6
20181019035702 38 17 0.0 0.0 0.00 0.00 0.00 93 1026.7
20181019034703 38 17 0.0 0.0 0.00 0.00 0.00 93 1026.8
20181019033702 38 17 0.0 0.0 0.00 0.00 0.00 93 1026.9
20181019032703 39 17 0.0 0.0 0.00 0.00 0.00 93 1026.8
20181019031703 39 17 0.0 0.0 0.00 0.00 0.00 93 1026.7
20181019030702 39 17 0.0 0.0 0.00 0.00 0.00 93 1026.8
20181019025702 39 17 0.0 0.0 0.00 0.00 0.00 93 1026.7
20181019024702 39 17 0.0 0.0 0.00 0.00 0.00 93 1026.7
20181019023702 39 17 0.0 0.0 0.00 0.00 0.00 93 1026.8
20181019022703 39 17 0.0 0.0 0.00 0.00 0.00 93 1026.8
20181019021703 39 17 0.0 0.0 0.00 0.00 0.00 93 1026.9
20181019020702 39 17 0.0 0.0 0.00 0.00 0.00 93 1026.9
20181019015703 39 17 0.0 0.0 0.00 0.01 0.00 93 1026.8
20181019014702 39 17 0.0 0.0 0.00 0.01 0.00 93 1026.8
20181019013702 40 17 0.0 0.0 0.00 0.01 0.00 93 1026.8
20181019012702 40 17 0.0 0.0 0.00 0.01 0.00 93 1026.8
20181019011703 40 17 0.0 0.0 0.00 0.02 0.00 93 1026.8
20181019010703 40 17 0.0 0.0 0.00 0.02 0.00 93 1026.9
20181019005703 40 17 0.0 0.0 0.00 0.02 0.00 93 1026.9
20181019004703 40 17 0.0 0.0 0.00 0.02 0.00 93 1026.9
20181019003703 41 17 0.0 0.0 0.00 0.02 0.00 93 1026.9
20181019002703 41 17 0.0 0.0 0.00 0.02 0.00 93 1026.8
20181019001703 41 17 0.0 0.0 0.00 0.02 0.00 93 1026.8
20181019000703 41 17 0.0 0.0 0.00 0.02 0.00 93 1026.8